www.pogodaiklimat.ru

Погода и климат >> Архив погоды >> Колумбия >> Neiva


ПОГОДА в Neiva

  • Прогноз погоды в Neiva
  • Монитор погоды в Neiva
  • Климат города

АРХИВ ПОГОДЫ в Neiva

Время (UTC), дата Ветер
(напр.,м/с)
 
Видим.   Явления Облачность Т
(С)
Тd
(С)
f
(%)
Тe
(С)
Тes
(С)
Комфортность P
(гПа)
Po
(гПа)
Тmin
(С)
Tmax
(С)
R
(мм)
R24
(мм)
S
(см)
03 13.07 Ю 3 18 км 3/1 700 м
[Cu hum Ac trans]
+27.4 +15.8 49 +30 +30 жарко 1011.3 961.5
12 13.07 Ю 3 18 км 9/0
[Ac As]
+25.1 +16.4 59 +29 +29 душно 1011.3 961.1 +24.8
15 13.07 Ю 4 18 км 9/0
[Ac As Cs]
+29.0 +16.1 46 +32 +36 душно 1011.3 961.8
18 13.07 Ю 4 18 км осадки на расстоянии 9/1 1350 м
[Cu hum Ac As]
+31.8 +15.0 36 +34 +38 душно 1009.0 960.0
00 14.07 Ю 2 18 км 3/1 1500 м
[Cu hum Ac trans Cs]
+30.3 +16.6 44 +34 +34 очень
душно
1007.9 958.8 +32.7
03 14.07 С 5 10 км 6/3 600 м
[Sc Ac trans]
+23.2 +18.9 77 +29 +29 душно 904.5
12 14.07 штиль 0 18 км 4/1 1000 м
[Cu hum Ac trans Cs]
+24.8 +17.1 62 +29 +30 душно 1011.4 961.2 +24.8
15 14.07 Ю 3 18 км 3/1 1500 м
[Cu hum Ac trans Cs]
+30.1 +16.7 45 +34 +44 очень
душно
1010.9 961.6
18 14.07 Ю 3 18 км 5/4 1500 м
[Cu med, cong Ac trans]
+34.8 +13.7 28 +36 +44 душно 1007.1 958.7
21 14.07 Ю 3 18 км 6/3 1500 м
[Cu med, cong Ac trans Cs]
+35.2 +13.9 28 +36 +38 очень
жарко
1004.0 955.8
00 15.07 ЮВ 2 18 км 8/1 1500 м
[Cu hum Ac As Cs]
+32.2 +14.9 35 +34 +34 душно 1005.8 957.1
03 15.07 Ю 1 18 км 4/1 300 м
[Cu hum Ac As]
+29.7 +15.6 42 +32 +32 душно 1009.1 959.8
12 15.07 Ю 1 18 км 9/1 600 м
[Sc Ac As]
+26.0 +16.1 54 +29 +30 душно 1010.0 960.1 +24.8
15 15.07 Ю 4 18 км 9/1 1050 м
[Cu hum Ac As]
+28.8 +16.0 46 +32 +35 душно 1011.0 961.5
18 15.07 Ю 6 15 км осадки на расстоянии 9/1 1500 м
[Cu hum Ac As]
+31.0 +15.5 39 +33 +36 душно 1008.3 959.2
21 15.07 Ю 5 18 км осадки на расстоянии 9/1 1500 м
[Cu hum Ac As]
+30.6 +15.2 39 +33 +34 душно 1006.6 957.6
00 16.07 Ю 3 18 км осадки на расстоянии 9/1 1350 м
[Cu hum Ac As]
+28.5 +14.4 42 +31 +31 душно 1008.4 959.0 +32.2
12 16.07 Ю 2 16 км осадки на расстоянии 9/1 1500 м
[Cu hum Ac As]
+24.6 +16.3 60 +28 +29 душно 1012.0 961.7 +24.6
15 16.07 Ю 4 18 км осадки на расстоянии 4/1 1500 м
[Cu hum Ac As]
+30.0 +14.6 39 +32 +39 жарко 1012.1 962.7
18 16.07 Ю 6 18 км 3/1 1500 м
[Cu med, cong Ac trans]
+34.2 +13.7 29 +35 +41 очень
жарко
1009.0 960.4
21 16.07 Ю 4 18 км 5/1 1500 м
[Cu hum Ac trans]
+33.7 +12.7 28 +34 +36 очень
жарко
1005.7 957.2
00 17.07 Ю 4 18 км 9/1 1500 м
[Sc diur, vesp Ac As]
+30.9 +15.2 39 +33 +33 душно 1007.9 958.9 +34.7
03 17.07 штиль 0 18 км 9/1 1350 м
[Cu hum Ac As]
+29.4 +16.4 45 +33 +33 душно 1010.1 960.7
12 17.07 Ю 3 18 км 9/0
[Ac As]
+25.2 +17.4 62 +29 +30 душно 1012.6 962.4 +24.6
15 17.07 Ю 4 18 км 9/1 1200 м
[Cu med, cong Ac trans]
+29.0 +16.9 48 +33 +37 очень
душно
1012.1 962.5
18 17.07 Ю 3 18 км 6/1 1200 м
[Cu hum Ac trans]
+32.5 +16.0 37 +35 +45 душно 1008.7 959.9
21 17.07 Ю 4 16 км осадки на расстоянии 9/1 1350 м
[Cu med, cong Ac As]
+33.4 +16.4 36 +36 +37 очень
душно
1005.8 957.3
03 18.07 штиль 0 18 км 9/1 1050 м
[Cu hum Ac As]
+26.2 +19.7 67 +32 +32 очень
душно
1011.8 961.8
12 18.07 штиль 0 18 км 8/1 1000 м
[Sc diur, vesp Ac trans]
+22.8 +20.6 87 +30 +31 очень
душно
1011.5 961.0 +22.8
15 18.07 Ю 2 18 км 8/1 1350 м
[Cu hum Ac trans Cs]
+29.0 +18.3 52 +34 +42 очень
душно
1010.9 961.4
18 18.07 Ю 2 18 км 5/1 1500 м
[Cu med, cong Ac trans]
+34.0 +16.2 35 +37 +49 очень
душно
1006.9 958.4
21 18.07 Ю 2 18 км осадки на расстоянии 9/1 1500 м
[Cu med, cong Ac As]
+34.8 +15.9 32 +37 +39 очень
душно
1003.2 955.0
00 19.07 штиль 0 18 км 9/1 1200 м
[Sc diur, vesp Ac As]
+30.8 +17.4 45 +35 +35 очень
душно
1005.2 956.2 +35.9
03 19.07 ЮВ 1 18 км 5/1 1200 м
[Cu hum Ac trans]
+29.7 +17.7 49 +34 +34 очень
душно
1007.8 958.5
12 19.07 штиль 0 18 км 8/0
[Ac trans]
+24.8 +20.3 76 +31 +32 очень
душно
1009.3 959.2 +22.8
15 19.07 Ю 2 18 км 8/1 1200 м
[Cu med, cong Ac trans]
+29.2 +18.2 52 +34 +41 очень
душно
1009.5 960.1
18 19.07 штиль 0 18 км 8/1 1350 м
[Cu med, cong Ac trans]
+33.1 +17.0 38 +36 +49 очень
душно
1006.3 957.6
21 19.07 штиль 0 18 км 4/3 1500 м
[Cu med, cong Ac trans Cs]
+36.0 +16.4 31 +38 +43 очень
душно
1002.0 954.1

 

Местоположение метеостанции Neiva (Колумбия): широта 2.97 долгота -75.30 высота над уровнем моря 443 м.

В архиве по умолчанию представлена погода в Neiva за последнюю неделю. Архивные данные за месяц целиком и за предыдущие месяцы, начиная с января 2011 года, Вы можете получить, выбрав интересующий диапазон дат из раскрывающегося списка и нажав кнопку "Ввод!".


*Определитесь, кто Вы:
робот инопланетянин человек

Внимание! Время в таблицах - всемирное. Для получения местного времени необходимо прибавить поправку, которая в Neiva равна -5 ч.

Смотрите также архив погоды в соседних городах и на ближайших метеорологических станциях:

Погода в Cali (Колумбия) (136 км)
Погода в Ibague (Колумбия) (163 км)
Погода в Armenia (Колумбия) (176 км)
Погода в Pereira (Колумбия) (211 км)
Погода в Villavicencio (Колумбия) (230 км)
Погода в Bogota (Колумбия) (232 км)
Погода в Pasto (Колумбия) (278 км)
Погода в Quibdo (Колумбия) (339 км)
Погода в Rionegro (Колумбия) (352 км)
Погода в Ipiales (Колумбия) (353 км)

Пояснения к столбцам:

Ветер - указаны скорость ветра в м/с - средняя за 10 мин, порывы в срок и между сроками (в фигурных скобках) и направление, откуда дует ветер: С - северный, СВ - северо-восточный, В - восточный, ЮВ - юго-восточный, Ю - южный, ЮЗ - юго-западный, З - западный, СЗ - северо-западный.
Видимость - горизонтальная дальность видимости в метрах или километрах. При видимости от 1 до 10 км при отсутствии осадков обычно наблюдается дымка, при ухудшении видимости до 1 км и менее - туман. В сухую погоду видимость может ухудшаться дымом, пылью или мглою.
Явления - указаны атмосферные явления, наблюдавшиеся в срок или в последний час перед сроком; фигурными скобками обозначены явления, наблюдавшиеся между сроками (за 1-3 часа до срока); квадратными скобками обозначены град или гололедные отложения с указанием их диаметра в мм.
Облачность - указаны через наклонную черту общая и нижняя облачность в баллах и высота нижней границы облаков в метрах; квадратными скобками обозначены формы облаков: Ci - перистые, Cs - перисто-слоистые, Cc - перисто-кучевые, Ac - высококучевые, As - высокослоистые, Sc - слоисто-кучевые, Ns - слоисто-дождевые, Cu - кучевые, Cb - кучево-дождевые. Подробнее классификацию облаков см. в Атласе облаков (PDF).
T - Температура воздуха - температура, измеренная на высоте 2 м над землей.
Td - Температура точки росы - температура, при понижении до которой содержащийся в воздухе водяной пар достигнет насыщения.
f - Относительная влажность воздуха - влажноcть воздуха, измеренная на высоте 2 м над землей.
Te - Эффективная температура - температура, которую ощущает одетый по сезону человек в тени. Характеристика душности погоды. При расчете учитывается влияние влажности воздуха и скорости ветра на теплоощущения человека.
Tes - Эффективная температура на солнце - температура, которую ощущает человек, с поправкой на солнечный нагрев. Характеристика знойности погоды. Зависит от высоты солнца над горизонтом, облачности и скорости ветра. Ночью, в пасмурную погоду, а также при ветре 12 м/с и более поправка равна нулю.
P - Атмосферное давление - приведенное к уровню моря атмосферное давление.
Po - Атмосферное давление - измеренное на уровне метеостанции атмосферное давление.
Tmin - Минимальная температура - минимум температуры воздуха на высоте 2 м над землей.
Tmax - Максимальная температура - максимум температуры воздуха на высоте 2 м над землей.
R - Количество осадков - Количество выпавших осадков за период времени, мм. При наведении курсора мыши на число - период времени, за который выпало указанное количество осадков.
R24 - Количество осадков - Количество выпавших осадков за 24 часа, мм.
S - Снежный покров - Высота снежного покрова, см. При наведении курсора мыши на число - состояние снежного покрова и степень покрытия местности в баллах.